Find EOS SAT-1

NORAD ID: 55053 Int'l Des: 2023-001 Owner: EOSDA Country: US operational
LEOCIRCULARRETROGRADESSO

当前视图

正在加载3D地球...

About EOS SAT-1

EOS SAT-1 (NORAD 55053) is a satellite launched Jan 3, 2023 by EOSDA of US. It operates in LEO, CIRCULAR, RETROGRADE, SSO orbit with a mass of 178.00 kg.

即将过境

Passes for default location (London). Set your location on the main map for personalized predictions.

高度历史

Loading altitude history...

两行轨道根数

1 55053U 23001AW 26195.15821450 .00002987 00000-0 93546-4 0 9990
2 55053 97.3226 255.5301 0009678 30.6235 329.5571 15.33845084196053
Epoch: Jul 14, 2026 • Age: 13 hours

当前状态

高度 460.3 km
远地点 / 近地点 N/A
速度 7.64 km/s
星下点 16.08°N, 75.5°E
发射日期 Jan 3, 2023
运行时间 3.5 years
类型 other

技术详情

分类 Payload
质量 178.00 kg
干质量 178.00 kg
总质量 178.00 kg
长度 0.50 m
直径 0.50 m
跨度 0.50 m
形状 Pent cyl + 2 pan
制造商 DRFLY
平台类型 EOS-SAT
阶段状态 In Orbit
所有者/国家 EOSDA/US

Most Searched